Home   Weather   Medicine Hat   Past weeks

Flag for Canada Past Weather in Medicine Hat, Alberta, Canada — Yesterday and Last 2 Weeks

Now
48 °F

Clear.


Feels Like: 45 °F
Forecast: 45 / 72 °F
Wind: 7 mph from Northeast

Location: Medicine Hat

Current Time: Sep 28, 2016 at 11:13:58 PM

Latest Report: Sep 28, 2016 at 10:00 PM


Visibility: 9 mi

Pressure: 30.23 "Hg (27.91 "Hg at 661m altitude)

Humidity: 76%

Dew Point: 41 °F

Location of Medicine HatLocation

Past Weather in Medicine Hat — Graph

°F

Medicine Hat Temperature Yesterday

Maximum temperature yesterday: 84 °F (at 1:00 PM)
Minimum temperature yesterday: 48 °F (at 5:00 AM)
Average temperature yesterday: 61 °F

High & Low Weather Summary for the Past Weeks

 TemperatureHumidityPressure
High84 °F (Sep 27, 1:00 PM)100% (Sep 22, 10:00 AM)30.37 "Hg (Sep 22, 10:00 AM)
Low36 °F (Sep 25, 6:00 AM)20% (Sep 14, 3:00 PM)29.50 "Hg (Sep 18, 1:00 AM)
Average54 °F65%30.01 "Hg
* Reported Sep 13 10:00 PM — Sep 28 10:00 PM, Medicine Hat, Weather by CustomWeather, © 2016

Note: Actual official high and low records may vary slightly from our data, if they occured in-between our weather recording intervals... More about our weather records

Advertising

Medicine Hat Weather History for the Previous 24 Hours

Scroll right to see more
 ConditionsComfort  
Time TempWeatherWind HumidityBarometerVisibility
10:00 PM
Wed, Sep 28
48 °FClear.7 mph76%30.23 "Hg9 mi
9:00 PM50 °FPassing clouds.12 mph71%30.23 "Hg15 mi
8:00 PM52 °FPassing clouds.8 mph62%30.24 "Hg15 mi
7:00 PM55 °FScattered clouds.14 mph51%30.23 "Hg30 mi
6:00 PM59 °FPartly sunny.14 mph45%30.23 "Hg30 mi
5:00 PM61 °FPartly sunny.12 mph45%30.23 "Hg30 mi
4:00 PM63 °FScattered clouds.15 mph42%30.24 "Hg30 mi
3:00 PM61 °FBroken clouds.10 mph48%30.27 "Hg30 mi
2:00 PM61 °FPartly sunny.13 mph48%30.29 "Hg30 mi
1:00 PM63 °FPartly sunny.15 mph45%30.30 "Hg30 mi
12:00 PM59 °FPartly sunny.15 mph51%30.32 "Hg30 mi
11:00 AM57 °FBroken clouds.10 mph55%30.34 "Hg30 mi
10:00 AM54 °FScattered clouds.10 mph63%30.36 "Hg30 mi
9:00 AM50 °FPartly sunny.6 mph71%30.37 "Hg30 mi
8:00 AM48 °FPartly sunny.7 mph71%30.37 "Hg30 mi
7:00 AM46 °FPassing clouds.5 mph82%30.36 "Hg30 mi
6:00 AM48 °FOvercast.3 mph76%30.35 "Hg9 mi
5:00 AM46 °FOvercast.3 mph82%30.35 "Hg9 mi
4:00 AM46 °FOvercast.No wind76%30.35 "Hg9 mi
3:00 AM45 °FOvercast.5 mph81%30.34 "Hg9 mi
2:00 AM43 °FPassing clouds.3 mph81%30.32 "Hg9 mi
1:00 AM45 °FPassing clouds.5 mph76%30.27 "Hg9 mi
12:00 AM48 °FClear.9 mph66%30.24 "Hg9 mi
11:00 PM
Tue, Sep 27
50 °FPassing clouds.10 mph62%30.23 "Hg9 mi
Weather by CustomWeather, © 2016

See weather overviewHow to use our weather pages